Temp_Advection
nan nan nan nan nan nan nan nan nan nan nan nan nan nan nan nan nan nan nan nan nan nan nan nan nan nan nan nan nan nan nan nan nan
nan -0 -0 -0 -0 -0 -0 -0 -0 -0 0 -0 -0 0 0 -0 -0 0 0 0 -0 -0 -0 -0 -0 -0 -0 0 0 0 0 0 nan
nan 0 -0 -0 -0 -0 -0 -0 -0 -0 -0 0 0 0 0 0 -0 -0 0 0 -0 -0 -0 -0 -0 -0 0 0 0 0 0 0 nan
nan 0 0 -0 0 -0 -0 -0 -0 -0 0 0 -0 -0 0 0 0 0 0 0 -0 -0 -0 -0 -0 -0 0 0 0 0 0 0 nan
nan -0 -0 0 0 0 -0 -0 -0 -0 -0 -0 -0 0 -0 -0 -0 0 0 0 0 -0 -0 -0 -0 0 0 0 0 0 0 0 nan
nan -0 -0 -0 -0 -0 0 0 -0 -0 -0 -0 -0 -0 0 -0 -0 -0 0 1 0 -0 -1 -0 0 -0 -0 0 0 0 0 0 nan
nan 0 0 -0 -0 -1 -0 -0 -0 -0 -0 -0 -0 -0 -0 0 0 -0 -0 -0 0 0 0 -0 -0 0 0 0 -0 -0 0 0 nan
nan -0 0 -0 -0 -0 -0 -0 -0 -0 -0 -0 -0 -0 -0 -0 -0 -0 -0 -0 -0 0 -0 -0 -0 -0 -0 0 0 -0 -0 -0 nan
nan 0 -0 -0 -0 -0 -0 -0 -0 -0 -0 -0 -0 -0 0 -0 -0 -0 -0 0 -0 -0 0 -0 -0 0 -0 -0 -0 1 0 -0 nan
nan 0 0 0 -0 -0 -0 -0 -0 -0 -0 -0 -0 -0 -0 -0 0 -0 -0 -1 -0 -0 -0 0 0 -0 -0 -0 -0 -0 0 0 nan
nan -0 -0 -0 -0 -0 -0 0 -0 -0 -1 -1 -0 -0 -0 -0 -0 -0 0 -0 -1 -1 -0 -0 -0 -0 -0 -0 -0 -0 -0 0 nan
nan -0 -0 -0 -0 -0 -0 -0 -0 0 -0 -0 -0 -1 -0 -0 -0 -0 -0 -0 0 -0 -1 -0 -0 -0 -0 -0 -0 -0 -0 -0 nan
nan -0 -0 -0 -0 -0 -0 -0 -0 -0 -0 -0 0 -0 -1 -1 -1 -1 -1 -0 -0 0 -0 -1 -0 -0 -1 -0 -0 0 -0 -0 nan
nan -0 -0 -0 -0 -0 -0 -0 -0 -0 -0 -0 -0 0 0 0 -0 -1 -1 -1 -1 -1 -1 -1 -1 -0 -0 -1 -0 -0 -0 -0 nan
nan -0 -0 -0 -0 -0 -0 -0 -0 -0 -1 -1 -0 -0 -0 -0 0 -0 -0 -0 -0 -0 -0 0 -0 -1 -1 -0 -1 -1 0 -0 nan
nan -0 -0 0 -0 -0 -0 -0 -0 0 -1 -2 -2 -1 -0 0 -0 -0 -0 -1 -0 -1 -1 -0 0 0 -0 -1 -1 -1 -1 0 nan
nan -0 -0 -0 -0 0 -0 -0 -1 -0 0 -1 -2 -1 -1 -0 -0 -1 -0 -1 -1 -1 -1 -1 -0 0 0 -0 -1 -1 -1 -1 nan
nan -0 -0 -0 -0 -0 -0 -0 -1 -1 0 0 0 -0 -0 -2 -1 -0 -0 -1 -1 -1 -1 -1 -1 -0 -1 -0 -1 -1 -1 -1 nan
nan -0 -0 -0 0 -0 0 0 -0 -0 -1 0 1 0 -0 -0 -1 -1 -0 -0 -0 -1 -0 -0 -1 -0 -0 -0 -0 -0 -0 -0 nan
nan nan nan nan nan nan nan nan nan nan nan nan nan nan nan nan nan nan nan nan nan nan nan nan nan nan nan nan nan nan nan nan nan
Wind_Speed
11 11 11 12 13 13 12 12 11 11 12 13 11 11 10 9 9 9 5 11 16 14 13 13 13 11 11 10 8 7 7 7 7
13 13 13 13 14 14 14 14 14 14 13 13 13 12 13 13 11 13 9 17 19 18 17 15 14 13 12 11 11 10 9 9 10
15 15 15 15 16 16 17 17 17 17 17 17 15 15 16 17 16 14 14 16 21 20 18 17 15 14 14 13 12 12 11 11 12
17 17 18 18 18 17 17 18 18 19 19 19 19 19 19 20 21 19 16 17 22 23 20 19 18 16 15 15 15 14 13 13 13
16 16 19 18 18 19 20 20 20 20 20 20 20 21 22 23 24 24 23 20 24 25 24 21 20 19 18 17 17 16 16 15 14
15 15 17 18 19 20 21 21 21 22 23 22 21 19 20 23 23 26 26 22 26 27 29 25 24 23 21 19 19 19 19 18 17
14 13 13 12 14 16 13 13 16 18 15 14 16 17 20 22 22 21 24 24 25 27 28 27 27 26 25 23 21 21 22 21 19
11 11 10 12 13 12 14 16 15 13 16 17 18 21 23 24 23 23 25 27 29 30 31 31 29 28 28 28 26 24 23 23 22
9 7 9 9 10 13 13 13 14 16 17 18 20 21 21 21 27 31 31 33 33 33 31 33 32 32 31 31 30 29 27 25 24
12 11 11 11 13 14 15 15 16 18 19 21 22 23 24 26 25 24 30 30 32 34 35 34 33 33 34 34 34 33 31 30 27
12 12 11 11 13 14 14 13 14 16 17 18 18 20 22 24 26 28 28 27 30 33 33 36 38 36 36 36 36 37 36 34 32
13 12 13 16 16 15 14 14 15 15 16 17 18 20 21 21 24 27 28 28 27 28 32 37 39 39 39 37 38 38 38 38 36
12 12 13 16 16 14 13 13 13 15 17 18 18 19 22 22 23 24 24 28 32 33 32 40 41 36 40 41 40 40 40 40 39
12 12 12 13 13 14 14 13 16 18 19 20 20 20 21 19 19 22 24 26 28 28 29 34 39 38 42 40 39 41 43 43 43
12 11 11 12 14 14 15 16 15 17 18 20 19 18 14 11 14 17 18 16 19 22 26 28 32 34 36 41 43 41 42 46 46
11 11 11 11 12 14 16 18 19 17 21 22 23 13 11 9 12 16 17 20 26 28 32 32 35 36 33 33 39 42 45 46 49
12 12 13 13 13 13 15 17 19 18 19 20 17 14 16 5 7 20 14 16 21 21 21 24 27 28 28 30 34 36 40 42 46
12 13 13 13 14 14 15 16 17 19 16 13 8 7 6 23 11 13 15 21 19 24 20 21 21 9 18 23 22 24 25 41 40
13 14 15 15 15 15 15 15 15 16 18 17 12 8 10 7 11 22 15 15 19 22 19 18 17 9 7 4 10 14 13 22 8
14 15 15 16 16 16 15 15 14 14 14 15 17 15 13 5 12 14 25 18 13 19 18 20 18 17 15 13 9 13 14 18 10
Wind_Direction
301 300 297 292 294 298 299 297 292 288 285 286 281 279 282 281 258 225 234 258 262 260 269 277 278 273 274 273 267 258 253 242 234
304 300 294 292 291 291 290 289 289 289 286 285 279 278 273 273 263 245 225 265 269 265 267 270 267 268 262 263 267 261 246 240 241
298 297 294 289 288 288 291 291 291 291 290 288 283 276 271 271 268 263 241 247 264 266 268 269 265 262 259 257 254 256 255 247 237
291 290 287 284 284 286 286 286 286 287 287 285 285 282 278 272 272 268 256 256 268 271 266 265 267 265 259 255 254 252 249 249 249
288 289 286 289 289 288 287 285 286 286 288 288 286 285 282 277 276 272 266 248 253 262 267 264 265 266 262 258 254 252 250 246 244
289 292 293 294 294 290 286 286 284 283 283 287 292 292 287 283 284 281 275 263 254 259 265 264 264 265 264 260 258 255 251 247 244
295 296 297 307 299 304 308 295 290 292 299 296 292 284 286 282 278 285 283 280 271 265 263 266 264 262 263 261 259 257 253 251 247
309 307 292 287 295 293 282 282 288 288 273 266 270 278 286 284 279 269 270 271 267 269 266 264 263 260 257 259 259 258 255 253 249
314 311 306 302 294 285 283 278 276 268 265 264 261 259 262 277 278 273 269 268 272 272 272 269 265 261 258 255 255 255 254 253 252
324 316 304 299 288 292 297 296 290 287 284 277 272 267 261 259 265 283 283 273 267 270 269 272 269 267 260 255 252 252 251 252 252
328 326 322 306 300 302 304 310 309 303 299 293 285 277 272 270 265 265 274 283 284 274 273 269 267 268 266 259 254 250 250 249 248
333 326 317 310 311 310 305 303 302 303 303 304 303 297 287 280 275 270 268 269 272 278 274 268 269 265 265 263 258 254 250 249 248
333 327 320 320 324 321 316 316 316 314 316 312 314 316 310 305 300 294 291 279 274 273 275 274 274 271 264 263 260 256 254 250 248
341 339 338 342 347 346 341 340 334 330 324 319 315 308 304 310 320 320 318 321 316 310 292 282 280 274 266 263 261 258 255 252 248
344 343 339 341 339 341 339 343 342 341 336 331 328 334 344 359 336 319 322 317 303 303 301 298 289 288 275 268 261 261 259 254 251
339 340 338 338 340 340 340 338 338 344 343 338 333 348 344 294 324 320 337 322 314 313 294 294 287 283 286 276 269 262 258 255 253
337 336 333 333 335 332 331 331 334 338 352 354 357 342 14 340 18 359 345 338 338 334 341 323 299 278 274 272 271 267 260 258 254
330 330 330 331 330 329 330 328 334 334 344 2 348 344 324 333 316 7 335 339 346 351 341 348 339 348 279 277 288 280 278 258 254
327 329 331 332 329 328 330 329 329 328 333 336 333 335 318 319 313 327 325 356 337 354 7 7 6 359 25 343 326 283 310 262 315
325 328 328 328 330 330 329 326 322 322 322 325 327 330 339 266 325 314 332 357 333 339 352 1 360 5 12 4 330 259 299 311 331
Height
1545 1544 1544 1543 1543 1542 1542 1541 1540 1540 1539 1538 1538 1538 1538 1538 1538 1539 1539 1540 1539 1538 1538 1538 1538 1537 1537 1537 1537 1537 1537 1538 1539
1544 1543 1542 1542 1541 1540 1539 1539 1538 1538 1537 1536 1536 1536 1536 1535 1536 1536 1537 1538 1537 1536 1536 1536 1536 1535 1535 1535 1535 1536 1536 1536 1537
1541 1541 1540 1539 1539 1538 1537 1537 1536 1536 1535 1535 1534 1534 1533 1533 1533 1534 1534 1535 1535 1534 1534 1533 1533 1533 1533 1533 1533 1533 1534 1534 1534
1538 1538 1536 1536 1536 1535 1535 1534 1533 1533 1532 1532 1532 1531 1531 1530 1530 1530 1530 1532 1532 1531 1532 1531 1531 1531 1530 1530 1530 1530 1531 1531 1532
1534 1533 1532 1533 1532 1532 1531 1531 1530 1530 1529 1529 1528 1528 1527 1526 1526 1526 1527 1527 1528 1528 1528 1528 1528 1528 1528 1528 1528 1528 1528 1528 1528
1531 1531 1531 1530 1529 1528 1527 1527 1526 1526 1525 1525 1525 1524 1523 1523 1522 1522 1523 1524 1524 1524 1524 1524 1525 1525 1525 1525 1525 1525 1525 1525 1525
1528 1527 1527 1526 1525 1524 1523 1522 1522 1521 1522 1522 1521 1521 1520 1519 1518 1517 1517 1518 1519 1519 1519 1519 1520 1521 1521 1521 1521 1521 1522 1522 1522
1525 1525 1524 1523 1523 1521 1520 1519 1518 1518 1518 1517 1517 1518 1517 1516 1515 1515 1514 1514 1514 1514 1514 1514 1515 1515 1515 1516 1517 1518 1518 1518 1519
1522 1521 1521 1520 1519 1518 1516 1514 1513 1512 1512 1511 1511 1511 1511 1512 1511 1510 1510 1510 1509 1509 1508 1508 1509 1509 1510 1510 1510 1511 1513 1514 1514
1520 1519 1518 1517 1515 1514 1513 1512 1511 1509 1508 1507 1507 1506 1505 1505 1505 1504 1504 1504 1503 1502 1502 1503 1502 1502 1503 1504 1504 1505 1506 1508 1509
1518 1517 1516 1514 1512 1511 1509 1508 1506 1505 1504 1502 1501 1499 1499 1498 1498 1498 1498 1498 1497 1497 1495 1496 1496 1496 1496 1497 1498 1498 1499 1500 1502
1517 1515 1513 1511 1509 1508 1506 1505 1503 1501 1500 1498 1496 1495 1493 1492 1492 1492 1491 1490 1490 1490 1488 1489 1488 1489 1489 1490 1490 1491 1492 1494 1495
1514 1512 1510 1508 1507 1505 1504 1502 1500 1499 1497 1494 1492 1490 1489 1488 1488 1487 1486 1485 1484 1482 1481 1481 1481 1481 1481 1482 1483 1484 1485 1486 1488
1514 1511 1510 1508 1506 1504 1502 1501 1498 1496 1493 1490 1488 1486 1485 1484 1484 1483 1481 1479 1478 1476 1474 1474 1472 1472 1473 1473 1474 1475 1476 1478 1479
1513 1511 1509 1507 1505 1503 1501 1499 1497 1494 1490 1487 1484 1483 1482 1482 1481 1479 1478 1476 1472 1469 1467 1465 1464 1463 1464 1465 1466 1467 1469 1468 1470
1512 1510 1508 1506 1504 1501 1499 1497 1494 1492 1488 1484 1480 1479 1479 1478 1479 1478 1474 1472 1469 1465 1461 1459 1457 1456 1455 1456 1457 1457 1458 1459 1460
1511 1509 1507 1505 1503 1500 1498 1495 1493 1490 1488 1484 1482 1480 1478 1477 1475 1474 1472 1470 1466 1461 1456 1452 1448 1447 1446 1446 1446 1445 1447 1450 1451
1509 1507 1505 1503 1501 1499 1497 1494 1491 1487 1486 1485 1483 1481 1480 1476 1474 1473 1470 1468 1464 1460 1454 1450 1444 1441 1440 1442 1444 1441 1443 1443 1443
1508 1506 1504 1502 1500 1497 1495 1492 1490 1487 1485 1484 1483 1483 1482 1477 1471 1469 1468 1466 1462 1460 1456 1452 1446 1443 1436 1437 1438 1441 1436 1438 1432
1506 1505 1503 1500 1498 1495 1493 1490 1488 1485 1482 1481 1479 1479 1479 1478 1475 1467 1463 1462 1461 1458 1455 1451 1449 1445 1441 1438 1436 1437 1433 1435 1432